Clarksburg, WV

4:34 PM EDT on May 22, 2017 (GMT -0400)
Benedum

Weather History for KCKB - October, 2013

Change the Weather History Date:

Monday, October 28, 2013

  Actual Average Record
Temperature  
Mean Temperature 44 °F -  
Max Temperature 62 °F 62 °F 79 °F (1939)
Min Temperature 28 °F 36 °F 20 °F (1942)
Degree Days  
Heating Degree Days 20    
Moisture  
Dew Point 34 °F    
Average Humidity 70    
Maximum Humidity 92    
Minimum Humidity 38    
Precipitation  
Precipitation 0.00 in - - ()
Sea Level Pressure  
Sea Level Pressure 30.21 in    
Wind  
Wind Speed 1 mph (WNW)    
Max Wind Speed 8 mph    
Max Gust Speed -    
Visibility 9 miles    
Events      
Averages and records for this station are not official NWS values.
T = Trace of Precipitation, MM = Missing Value Source: NWS Daily Summary

Daily Weather History Graph

Daily Weather History Graph

Search for Another Location

Airport or City:

Trip Planner

Search our weather history database for the weather conditions in past years. The results will help you decide how hot, cold, wet, or windy it might be!

Date:

Astronomy

Oct. 28, 2013 Rise Set
Actual Time 7:44 AM EDT 6:24 PM EDT
Civil Twilight 7:17 AM EDT 6:51 PM EDT
Nautical Twilight 6:45 AM EDT 7:23 PM EDT
Astronomical Twilight 6:14 AM EDT 7:54 PM EDT
Moon 1:38 AM EDT (10/28) 3:03 PM EDT (10/28)
Length of Visible Light 11h 34m
Length of Day
10h 39m
Waning Crescent, 34% of the Moon is Illuminated
Oct 28
Waning Crescent
Nov 3
New
Nov 10
First Quarter
Nov 17
Full
Nov 25
Last Quarter

Hourly Weather History & Observations

Time (EDT) Temp. Dew Point Humidity Pressure Visibility Wind Dir Wind Speed Gust Speed Precip Events Conditions
12:53 AM 35.1 °F 32.0 °F 89% 30.12 in 10.0 mi Calm Calm - N/A   Clear
1:53 AM 34.0 °F 30.9 °F 89% 30.12 in 10.0 mi Calm Calm - N/A   Clear
2:53 AM 34.0 °F 30.9 °F 89% 30.13 in 10.0 mi Calm Calm - N/A   Clear
3:53 AM 33.1 °F 30.0 °F 89% 30.14 in 9.0 mi Calm Calm - N/A   Clear
4:53 AM 32.0 °F 30.0 °F 92% 30.15 in 7.0 mi Calm Calm - N/A   Clear
5:53 AM 30.9 °F 28.9 °F 92% 30.18 in 9.0 mi Calm Calm - N/A   Clear
6:53 AM 30.9 °F 28.0 °F 89% 30.19 in 7.0 mi Calm Calm - N/A   Clear
7:53 AM 28.9 °F 27.0 °F 92% 30.22 in 5.0 mi Calm Calm - N/A   Clear
8:53 AM 33.1 °F 30.9 °F 92% 30.25 in 6.0 mi Calm Calm - N/A   Clear
9:53 AM 41.0 °F 35.1 °F 79% 30.26 in 9.0 mi Calm Calm - N/A   Clear
10:53 AM 50.0 °F 39.0 °F 66% 30.26 in 10.0 mi Calm Calm - N/A   Clear
11:53 AM 53.1 °F 37.9 °F 57% 30.25 in 10.0 mi Calm Calm - N/A   Clear
12:53 PM 57.0 °F 36.0 °F 45% 30.22 in 10.0 mi Calm Calm - N/A   Clear
1:53 PM 60.1 °F 36.0 °F 41% 30.21 in 10.0 mi WSW 5.8 mph - N/A   Clear
2:53 PM 61.0 °F 36.0 °F 39% 30.20 in 10.0 mi West 8.1 mph - N/A   Clear
3:53 PM 61.0 °F 35.1 °F 38% 30.20 in 10.0 mi NW 5.8 mph - N/A   Clear
4:53 PM 61.0 °F 35.1 °F 38% 30.21 in 10.0 mi Variable 4.6 mph - N/A   Clear
5:53 PM 59.0 °F 34.0 °F 39% 30.21 in 10.0 mi Calm Calm - N/A   Clear
6:53 PM 52.0 °F 37.0 °F 57% 30.24 in 10.0 mi NE 3.5 mph - N/A   Clear
7:53 PM 50.0 °F 36.0 °F 59% 30.25 in 10.0 mi Calm Calm - N/A   Clear
8:53 PM 46.0 °F 36.0 °F 68% 30.27 in 10.0 mi Calm Calm - N/A   Clear
9:53 PM 42.1 °F 35.1 °F 76% 30.27 in 10.0 mi Calm Calm - N/A   Clear
10:53 PM 42.1 °F 36.0 °F 79% 30.28 in 10.0 mi Calm Calm - N/A   Clear
11:53 PM 39.0 °F 35.1 °F 86% 30.28 in 10.0 mi Calm Calm - N/A   Clear